Presure
169 109 114 147 151 100 119 149 128 147 143 113 115 157 182 140 122 172 171 170 170 133 118 194 185 163 147 192 189 199 196 209 169 185 171 159 172 169 169 186 170 161 162 168 172 169 178 206 200
172 128 185 167 159 139 171 168 178 145 174 181 157 136 163 168 171 148 138 175 120 125 168 179 200 202 191 207 194 204 203 189 183 204 204 133 181 184 188 198 181 175 203 167 186 165 163 162 196
126 140 158 163 161 175 150 121 132 140 146 170 185 120 99 171 159 175 178 164 148 169 175 156 119 151 129 196 199 191 202 200 188 198 198 198 193 191 201 194 176 168 166 168 184 181 194 159 163
117 172 183 185 165 184 159 170 183 184 176 185 192 189 187 174 177 174 186 181 179 164 163 163 183 197 191 142 192 171 190 186 191 191 190 183 180 195 190 197 195 191 189 198 194 187 169 161 191
145 166 129 152 182 174 172 178 120 168 129 118 187 171 189 169 174 187 181 188 176 185 182 190 180 201 194 186 191 184 193 190 187 185 196 192 190 194 181 181 184 182 181 185 176 162 191 190 183
137 183 182 187 183 173 189 181 184 189 182 168 189 179 188 175 188 176 190 179 185 191 187 185 195 188 194 193 185 188 186 191 190 183 184 186 179 195 199 185 194 192 194 197 181 186 183 180 187
171 183 167 178 184 153 177 176 179 183 156 185 202 187 178 163 175 197 189 174 195 185 117 188 185 189 191 179 189 191 187 180 191 193 193 189 170 189 193 184 182 199 210 200 190 202 189 137 172
180 181 182 183 186 136 166 186 176 158 164 172 189 187 185 135 201 183 183 192 180 190 186 198 176 177 182 187 190 183 186 188 183 183 183 192 190 192 198 198 191 216 167 170 182 194 194 202 202
194 181 195 187 183 190 192 192 186 184 183 186 189 189 186 192 192 186 193 190 186 173 182 187 188 188 175 179 179 181 184 186 189 176 180 188 191 179 197 186 189 190 195 198 182 190 209 164 191
186 169 181 187 189 200 186 184 195 194 199 196 182 189 191 195 180 189 188 184 192 192 190 180 188 198 187 196 189 175 179 179 183 189 187 191 127 198 216 214 220 218 211 200 195 179 178 146 175
185 170 179 172 191 187 184 178 177 191 196 193 188 173 180 179 192 189 195 173 204 193 182 182 182 182 181 186 186 185 178 184 188 189 188 193 198 194 176 174 168 165 202 216 224 189 228 211 210
187 179 182 185 172 196 185 169 192 168 187 182 176 185 184 171 179 179 172 175 178 179 179 183 190 189 183 182 173 191 174 172 184 163 176 199 195 203 196 191 159 174 163 174 221 173 142 201 220
182 169 188 182 161 171 186 186 170 184 188 175 165 171 166 174 171 172 175 180 177 186 189 186 182 182 181 180 181 180 181 182 180 184 189 179 193 187 184 168 170 163 172 161 190 163 162 166 192
185 175 186 166 188 165 180 190 178 189 183 183 184 178 175 185 194 187 193 184 180 176 172 184 183 187 182 179 181 156 185 187 185 197 176 183 181 184 197 202 194 166 153 167 159 214 168 159 162
178 168 170 179 156 186 187 175 179 188 167 186 182 160 180 184 208 194 185 186 189 185 188 181 177 174 174 194 184 184 191 192 195 191 183 196 193 192 190 173 215 190 175 178 173 163 149 153 182
178 168 179 157 190 192 178 179 187 178 175 189 186 180 168 169 176 201 193 197 191 198 197 190 182 185 183 186 195 196 192 185 189 194 186 192 195 197 196 189 182 190 191 205 161 174 131 138 152
153 158 182 173 188 178 189 161 186 192 178 178 183 174 180 181 221 211 204 210 204 188 194 206 199 201 199 182 196 188 185 187 192 195 191 191 196 194 201 206 195 189 188 168 166 165 149 164 171
184 187 154 169 183 180 185 183 190 193 187 186 177 185 232 177 212 208 212 209 217 197 213 204 203 188 188 201 194 195 193 189 191 191 194 185 198 194 200 211 212 209 194 188 171 172 165 170 170
185 178 177 163 186 187 182 195 175 182 176 175 180 213 174 213 204 205 203 185 205 213 205 206 203 213 208 204 206 201 191 194 198 195 195 194 198 202 208 207 210 208 211 188 185 186 177 167 165
185 189 187 183 191 189 203 191 193 177 180 202 175 220 212 199 195 199 193 204 197 203 211 195 224 205 202 210 211 210 210 213 209 205 205 210 203 201 197 206 208 213 218 208 196 196 207 186 182
181 181 175 178 183 175 182 175 165 170 173 187 190 203 198 199 203 196 198 203 206 215 223 214 225 222 221 217 187 202 212 214 214 215 215 213 209 210 215 218 214 213 211 220 225 197 193 203 203
187 193 180 184 169 174 173 187 189 198 176 178 195 211 210 204 218 201 197 204 195 214 211 213 210 216 214 214 216 217 219 217 221 222 219 221 223 226 227 223 223 223 226 229 212 208 235 198 195
187 208 194 172 175 171 181 184 168 167 215 210 192 194 198 196 203 204 200 206 194 214 217 221 215 215 216 220 219 219 216 214 203 207 218 214 218 219 235 230 245 247 240 238 234 241 229 227 237
180 165 156 190 177 182 175 171 202 175 187 207 177 191 226 226 222 210 209 204 203 211 219 204 210 217 215 217 220 219 224 211 220 222 229 232 239 126 273 290 293 257 264 248 250 253 243 246 250
168 174 189 173 191 193 178 164 190 187 153 187 197 209 220 167 220 224 220 216 217 225 217 224 219 226 225 218 221 225 169 230 231 244 265 159 375 375 270 354 278 345 355 356 335 384 408 338 308
196 170 201 196 187 190 207 206 172 186 197 222 223 224 225 221 221 224 222 75 214 215 217 223 223 241 243 241 241 242 248 257 293 330 294 282 354 339 330 328 309 326 330 347 340 353 195 352 364
191 167 186 210 184 182 210 200 208 206 220 223 220 226 225 222 223 223 214 227 233 94 151 243 208 253 256 254 252 260 298 295 281 275 338 332 321 307 307 301 294 295 292 285 296 304 282 296 318
217 209 210 198 222 192 203 210 206 225 226 205 218 233 248 267 271 269 270 266 264 263 258 261 265 271 262 291 307 289 276 271 281 345 341 308 300 296 290 265 279 307 130 289 216 126 281 288 212
214 225 220 220 223 221 228 227 220 227 221 226 249 291 285 279 271 269 265 263 264 265 269 273 278 218 282 287 275 267 263 284 292 334 320 292 294 282 210 278 263 266 262 163 263 267 238 205 277
221 220 226 223 225 224 223 232 227 235 241 266 290 161 272 270 267 262 265 269 269 272 277 280 282 278 269 265 254 252 275 279 274 330 319 291 280 262 277 254 259 267 266 279 272 264 154 145 234
Wind_Speed
49 45 48 46 48 40 49 51 52 56 59 46 40 52 51 56 48 49 52 51 51 57 54 47 50 60 59 49 54 47 51 44 61 54 66 65 66 65 62 59 61 61 62 62 62 62 55 41 45
53 59 57 52 50 49 41 55 49 56 49 54 57 54 54 56 55 54 49 52 53 54 53 55 46 44 49 40 49 42 44 54 57 44 45 56 53 57 53 49 57 59 39 61 54 61 60 61 39
62 49 55 54 52 53 50 60 65 59 55 53 56 51 43 55 59 57 54 53 55 57 55 57 51 56 58 47 46 49 43 44 51 47 46 47 49 49 46 47 59 62 60 56 48 51 40 58 58
61 61 63 63 56 58 56 54 57 56 59 58 54 55 57 56 57 58 55 54 56 63 63 63 55 50 51 69 51 53 52 52 50 50 50 54 56 47 49 47 47 47 47 43 43 45 59 62 40
65 66 60 61 63 58 61 61 47 59 50 49 55 52 54 58 59 57 58 57 55 56 56 57 59 51 50 52 50 53 50 54 54 53 50 50 52 49 51 53 52 53 53 48 52 58 45 41 42
56 70 70 70 63 62 68 65 63 60 59 61 60 56 56 58 57 61 57 60 56 55 55 55 50 52 48 49 53 52 53 54 56 57 55 53 58 50 49 51 54 52 49 49 50 48 46 46 43
70 70 65 68 70 63 66 64 65 63 65 61 58 57 60 66 61 54 57 62 54 56 31 48 46 43 48 52 50 52 53 57 54 55 55 55 57 54 51 51 52 54 52 51 47 54 52 55 53
70 72 72 70 72 68 69 69 62 57 66 62 62 58 54 62 57 59 59 57 59 54 53 47 55 53 51 48 48 54 54 53 55 57 57 56 56 56 55 55 53 56 55 50 51 49 51 52 50
72 66 71 73 70 69 72 68 65 66 66 68 64 62 60 58 56 56 55 56 57 63 55 52 52 51 59 56 57 57 55 55 56 61 60 58 57 56 56 56 55 52 51 54 50 49 53 66 50
70 66 66 67 66 65 67 66 65 62 60 58 63 62 62 61 58 55 56 57 55 53 54 59 55 54 55 52 56 64 61 62 60 59 59 57 36 56 54 52 51 53 53 48 51 51 51 53 58
73 67 72 70 72 71 68 66 61 61 59 60 59 62 63 60 62 61 61 62 58 56 60 60 61 59 60 57 57 59 64 59 59 60 59 59 54 52 50 47 35 41 43 44 44 46 48 50 54
76 72 75 75 68 68 71 65 66 61 61 61 59 64 65 63 63 63 64 63 64 62 64 63 61 61 62 63 63 58 63 65 62 61 61 57 57 52 52 48 36 44 34 39 44 38 60 46 51
77 71 74 75 63 67 73 72 65 62 62 65 59 63 61 65 66 67 69 71 69 70 68 66 67 66 66 67 66 67 66 67 68 66 65 62 59 57 54 50 41 42 35 40 39 35 36 44 46
79 75 74 62 71 70 77 73 70 65 71 66 62 62 68 71 73 72 73 73 72 73 73 70 70 70 71 72 72 58 71 70 70 65 70 65 67 64 62 58 53 44 48 40 34 31 39 52 54
79 77 74 76 66 76 79 76 74 74 68 71 68 62 70 67 74 74 73 72 74 73 74 75 76 75 75 74 76 75 75 73 71 73 72 66 65 64 64 56 57 52 43 41 23 22 40 63 64
80 81 82 65 79 77 81 82 78 77 71 79 73 63 70 73 72 77 78 77 76 76 77 79 78 78 77 76 75 75 75 78 77 75 75 71 68 66 66 65 60 52 48 51 36 33 66 51 68
83 70 88 78 78 81 79 73 86 80 74 79 76 69 71 75 72 74 74 73 73 75 75 76 76 76 77 79 76 78 80 80 80 79 78 76 74 74 70 66 65 65 60 56 66 63 80 74 71
84 82 76 84 85 82 85 84 87 87 82 81 77 84 73 77 74 75 72 73 73 75 75 76 76 78 80 78 80 81 83 84 83 84 84 79 81 80 79 75 69 69 69 67 70 72 77 74 75
87 95 91 87 89 83 84 88 80 86 77 82 84 74 81 72 74 76 77 76 75 73 75 76 78 78 79 79 82 85 86 88 89 89 89 88 87 88 87 82 78 74 73 76 75 76 81 79 82
89 88 90 90 90 83 86 86 90 87 89 94 81 79 76 79 79 79 79 79 77 77 79 79 77 81 81 82 84 85 86 88 91 92 93 93 91 91 89 92 88 85 79 81 80 82 88 85 90
88 88 88 86 87 82 90 88 81 86 88 89 87 88 83 82 83 82 82 83 82 80 78 77 73 75 77 81 77 86 88 91 91 92 92 93 93 94 96 98 94 91 89 88 83 85 87 90 97
88 95 90 92 84 91 88 98 102 102 90 98 97 92 89 87 85 85 84 84 79 83 83 83 83 83 81 82 85 87 90 91 93 95 96 99 100 101 101 97 96 96 94 95 92 90 90 90 92
96 93 98 90 94 86 100 103 95 88 99 92 97 98 96 94 95 94 89 90 80 88 87 86 87 88 88 89 89 91 91 91 89 91 95 93 97 101 107 103 109 108 103 99 96 100 98 93 94
96 83 78 102 99 103 102 89 95 84 80 99 87 98 97 96 98 100 98 95 93 95 94 88 89 92 90 91 92 92 95 91 95 98 102 102 106 41 115 106 92 104 108 103 104 104 96 98 100
97 101 100 101 101 100 109 82 97 106 74 98 104 107 102 73 100 99 101 100 101 98 98 98 97 100 98 96 96 97 72 103 102 109 110 46 67 57 50 57 53 55 53 61 64 58 58 73 85
102 101 105 104 102 108 112 103 98 100 107 102 105 105 103 103 103 102 104 20 102 101 102 103 102 103 102 100 101 101 103 106 95 78 84 85 52 48 47 49 54 46 38 37 39 36 50 40 49
109 100 106 111 108 104 105 108 107 110 106 105 105 107 106 106 107 107 105 108 108 33 61 109 89 105 104 104 102 100 66 77 81 80 56 47 45 45 41 42 43 44 42 35 31 30 40 35 32
106 110 108 107 111 106 110 107 110 112 108 94 108 111 109 101 95 95 94 95 94 95 99 101 102 100 96 85 68 70 73 74 71 51 42 46 44 42 36 47 36 37 41 32 42 35 38 41 47
111 110 112 115 113 112 110 105 104 110 109 108 109 79 79 77 82 82 83 86 89 90 90 90 88 65 72 66 67 69 70 57 55 44 40 47 42 38 42 34 46 41 46 43 41 44 51 52 44
116 117 114 111 113 112 110 109 109 108 110 100 79 47 73 74 77 79 80 81 81 81 79 78 74 67 66 64 65 66 55 50 52 38 40 46 43 48 37 50 41 42 43 39 42 50 50 34 49
Wind_Direction
286 270 273 284 277 276 278 275 278 278 276 283 276 278 285 278 273 282 275 271 275 271 272 285 273 269 272 274 268 272 270 276 270 273 271 273 274 275 276 273 276 276 276 278 279 277 278 282 280
289 282 297 285 281 283 285 288 289 277 285 291 282 276 280 280 281 278 276 278 276 276 279 278 285 284 280 285 277 281 279 268 271 279 276 276 272 274 278 278 274 274 276 278 275 278 279 279 284
281 286 278 281 281 291 277 290 284 282 280 279 289 277 269 281 277 283 283 281 280 276 279 275 278 273 276 285 285 275 281 278 273 276 275 276 273 273 283 277 270 272 272 273 274 277 280 276 277
288 288 293 293 283 289 276 284 292 291 286 290 290 288 287 280 284 281 286 282 279 273 274 274 281 284 283 275 283 279 280 276 278 276 274 271 270 279 275 282 278 274 272 280 277 278 273 274 277
274 286 288 288 292 287 287 289 277 291 284 281 289 286 286 281 284 285 282 282 280 282 281 283 281 282 284 282 283 282 283 283 279 275 279 276 274 278 278 276 274 273 272 273 270 273 280 276 273
287 292 292 293 290 288 292 285 290 291 287 282 290 286 286 281 283 281 281 280 282 281 281 283 286 285 284 280 280 280 280 278 278 278 279 275 273 279 276 276 279 278 279 280 272 276 273 271 275
290 290 286 290 290 273 286 288 289 293 279 287 290 286 283 279 280 282 281 278 284 281 285 282 283 281 279 276 277 277 277 277 278 277 276 277 277 279 277 275 277 281 279 280 283 280 275 276 265
286 284 289 290 289 272 282 291 288 284 282 281 288 286 286 285 287 283 282 283 281 285 283 279 277 277 275 273 272 273 274 273 275 277 277 277 278 279 280 279 271 275 270 267 275 279 277 273 274
285 286 287 287 288 291 290 289 289 289 289 289 291 288 286 287 284 282 284 284 281 278 282 281 277 274 276 274 274 273 272 273 273 274 276 276 278 279 279 284 282 279 281 271 277 273 272 270 271
285 283 290 290 288 290 288 288 288 290 287 287 286 289 287 288 283 284 284 284 284 281 281 278 277 276 274 274 272 272 272 273 274 274 275 276 276 280 275 277 278 279 278 275 274 267 269 272 266
285 289 291 287 292 291 289 288 288 291 286 283 282 286 287 287 290 288 289 276 283 280 278 278 277 277 277 276 274 274 275 277 278 278 280 280 277 277 280 284 276 276 287 283 283 275 268 265 266
286 288 289 288 291 286 288 285 290 282 287 285 285 288 286 286 287 285 279 280 281 281 279 280 279 279 277 279 276 281 275 275 280 275 276 274 277 271 273 271 267 278 260 278 288 283 282 272 268
286 290 290 291 285 288 285 285 283 284 284 281 277 281 277 283 282 284 284 285 283 286 284 281 278 278 277 277 278 277 277 278 277 278 277 276 271 268 272 265 262 263 268 263 276 272 279 285 279
280 288 288 277 278 278 284 283 284 280 283 281 283 283 283 283 281 282 281 282 283 283 281 282 280 281 280 280 280 281 281 279 278 274 277 274 275 274 270 263 260 257 262 257 262 278 284 278 276
282 287 286 284 275 279 281 286 284 285 279 285 283 275 285 287 283 283 281 281 279 278 277 278 278 278 278 282 280 281 279 278 276 275 273 272 270 270 269 268 262 254 247 247 239 248 274 277 275
280 285 282 281 283 280 283 284 282 284 283 284 284 283 279 281 282 281 280 279 278 279 277 276 275 275 275 276 276 274 274 275 276 275 275 275 273 269 265 262 260 248 236 252 202 167 263 269 253
276 280 282 282 282 283 284 281 285 281 283 285 285 278 281 285 281 277 276 277 276 276 277 273 275 275 275 274 274 274 274 274 274 275 274 274 273 271 267 260 255 252 248 236 249 210 253 244 240
280 279 280 286 282 282 286 283 285 285 285 287 287 294 287 285 282 281 279 278 274 279 273 274 273 272 272 271 272 272 273 274 274 274 274 274 272 271 271 267 258 247 246 246 238 227 238 239 238
277 277 279 285 282 284 283 284 284 286 288 287 290 288 287 282 283 283 282 282 281 276 276 274 273 271 269 267 263 263 266 266 266 269 270 273 274 273 272 269 264 253 244 248 247 235 230 244 252
278 279 278 281 282 283 282 283 282 285 288 292 288 291 287 285 285 283 283 281 281 279 276 277 271 273 272 269 268 267 267 265 264 263 264 263 266 269 270 269 268 267 257 246 245 242 235 241 243
278 278 281 281 281 282 284 286 282 285 288 290 288 289 287 285 282 281 282 282 282 283 282 279 277 272 270 269 269 271 270 269 269 269 269 267 267 265 264 264 264 263 262 262 254 245 244 237 236
281 277 278 278 280 284 286 284 285 286 286 289 290 290 289 285 283 281 282 283 282 284 283 283 281 279 276 274 272 272 271 271 271 271 271 272 272 271 270 267 266 264 261 260 255 253 252 242 245
280 279 275 279 279 282 284 283 284 283 289 287 288 287 288 288 287 285 285 284 282 283 279 276 277 277 277 276 275 275 275 275 275 275 275 275 274 273 273 270 269 267 263 260 257 256 252 250 244
280 279 275 274 280 280 283 284 283 285 284 285 284 285 282 280 280 282 283 285 286 283 280 282 282 280 280 279 280 279 279 278 278 278 278 278 275 271 273 271 268 265 265 263 262 259 256 253 250
278 279 279 283 280 278 282 283 281 283 279 286 286 284 282 276 280 279 280 281 281 279 280 279 280 279 279 282 281 281 280 280 279 279 280 262 275 271 268 269 269 268 271 266 265 262 260 256 254
276 278 279 279 278 280 283 281 280 282 283 281 281 280 279 280 279 279 279 279 284 284 284 282 282 281 280 280 281 281 282 283 284 282 279 277 270 269 268 264 262 269 275 268 268 263 264 259 259
275 279 277 277 277 281 279 282 282 282 281 282 283 283 280 279 281 281 283 281 281 276 271 280 280 282 283 283 285 285 282 283 283 282 276 267 264 267 264 264 265 266 262 266 257 251 253 253 258
277 275 276 276 278 278 278 277 281 279 281 279 282 284 286 283 281 280 280 280 280 279 279 280 281 283 285 286 286 284 284 284 285 286 266 264 262 264 257 253 266 257 246 253 258 249 250 253 260
277 278 279 278 278 279 281 282 280 280 282 284 285 277 276 276 276 277 279 278 278 279 280 281 283 283 286 285 284 284 285 284 287 285 258 258 256 251 255 259 255 255 254 257 258 257 250 249 255
279 279 278 278 281 282 283 284 283 285 284 286 280 263 274 274 275 278 278 278 279 280 281 282 285 285 285 283 281 284 281 283 289 286 257 249 248 248 258 256 262 262 262 262 261 258 260 251 253